[[{"header":{"parameterUnit":"m.s-1","parameterCategory":1,"la1":30.2991,"la2":30.254,"lo1":-89.0895,"lo2":-89.0444,"dy":0.0017,"dx":0.0017,"nx":28,"ny":28,"refTime":"2024-03-26T21:00:00:Z","depth":0,"parameterNumber":2,"parameterNumberName":"U-component_of_WINDS"},"data":[0,0,0,0,0,0,0,0,0,0,0,0,0,0,0,0,0,0,0,0,0,0,0,0,0,0,0,0,0,0,0,0,0,0,0,0,0,0,0,0,0,0,0,0,0,0,0,0,0,0,0,0,0,0,0,0,0,0,-1.4867,-1.4868,0,-1.4895,-1.4896,-1.4896,-1.4882,-1.4881,-1.4881,-1.488,-1.4908,-1.4909,-1.4911,0,0,0,0,0,0,0,0,0,0,0,0,0,-1.4801,-1.4802,-1.4867,-1.4868,-1.4868,-1.4895,-1.4896,-1.4896,-1.4882,-1.4881,-1.488,-1.488,-1.4908,-1.4909,-1.4911,0,0,0,0,0,0,0,0,0,0,0,0,0,-1.4829,-1.4802,-1.4867,-1.4864,-1.4864,-1.4895,-1.4896,-1.4896,-1.4882,-1.4881,-1.488,-1.4879,-1.4907,-1.4909,-1.4911,-1.4946,0,0,-1.4918,-1.4919,0,0,0,0,0,0,0,0,-1.4828,-1.4832,-1.4864,-1.4865,-1.4865,-1.4884,-1.4882,-1.4913,-1.4883,-1.4876,-1.488,-1.4879,-1.4901,-1.4903,-1.4911,-1.4947,-1.4949,-1.4918,-1.4919,-1.492,-1.4921,0,0,0,0,0,0,0,-1.4826,-1.483,-1.4878,-1.4865,-1.4865,-1.4861,-1.4864,-1.4888,-1.4894,-1.4876,-1.4875,-1.4879,-1.4901,-1.4909,-1.4912,-1.4949,-1.4918,-1.492,-1.4921,-1.4922,-1.5014,-1.5016,0,0,0,0,0,0,-1.4824,-1.4829,-1.4877,-1.4879,-1.4843,-1.4863,-1.4867,-1.4879,-1.4894,-1.4895,-1.488,-1.4878,-1.4906,-1.4909,-1.4913,-1.4954,-1.492,-1.4922,-1.4923,-1.5013,-1.5015,-1.5016,0,0,0,0,0,0,-1.4823,-1.4828,-1.4876,-1.4854,-1.486,-1.4866,-1.488,-1.488,-1.4888,-1.4896,-1.4897,-1.4887,-1.4905,-1.491,-1.4938,-1.4955,-1.4923,-1.4925,-1.5012,-1.5014,-1.5015,-1.5038,0,0,0,0,0,0,-1.4821,-1.4828,-1.4842,-1.4854,-1.4861,-1.4902,-1.4881,-1.4881,-1.4892,-1.489,-1.4904,-1.4905,-1.4905,-1.4935,-1.494,-1.4957,-1.4927,-1.501,-1.5013,-1.5015,-1.5036,-1.504,-1.5044,0,0,0,0,0,-1.4818,-1.4847,-1.4843,-1.4848,-1.4878,-1.4903,-1.4906,-1.4906,-1.4894,-1.4907,-1.4912,-1.4904,-1.4952,-1.4938,-1.4943,-1.4962,-1.5009,-1.5012,-1.5015,-1.5034,-1.5039,-1.5044,0,0,0,0,0,0,-1.4837,-1.4849,-1.4844,-1.4877,-1.4889,-1.49,-1.4918,-1.4912,-1.4927,-1.4925,-1.4923,-1.4926,-1.4956,-1.4961,-1.4945,-1.4996,-1.4979,-1.4983,-1.4991,-1.4997,-1.5001,-1.4999,-1.4928,0,0,0,0,0,-1.4844,-1.4864,-1.4873,-1.4902,-1.4908,-1.4912,-1.4922,-1.4921,-1.4933,-1.4938,-1.4944,-1.4956,-1.4974,-1.4985,-1.5002,-1.5036,-1.5039,-1.5051,-1.5056,-1.5059,-1.5063,-1.5081,-1.5086,-1.5025,-1.5025,-1.5025,0,0,-1.4861,-1.487,-1.4882,-1.4905,-1.4914,-1.4934,-1.4916,-1.4937,-1.4952,-1.4941,-1.4968,-1.4973,-1.4986,-1.5017,-1.5031,-1.5023,-1.508,-1.5062,-1.5065,-1.5067,-1.5084,-1.509,-1.5095,-1.5027,-1.5026,-1.5026,0,0,-1.4901,-1.491,-1.4935,-1.4944,-1.4957,-1.496,-1.4966,-1.4977,-1.4981,-1.5008,-1.5,-1.5016,-1.5047,-1.5056,-1.5065,-1.5107,-1.51,-1.5112,-1.5135,-1.5152,-1.5157,-1.5162,-1.5177,-1.5182,-1.5116,-1.5116,-1.5116,0,-1.492,-1.495,-1.4948,-1.497,-1.498,-1.4971,-1.4996,-1.5005,-1.5023,-1.503,-1.502,-1.5058,-1.5066,-1.5099,-1.5109,-1.5116,-1.5123,-1.5111,-1.5157,-1.5161,-1.5165,-1.5179,-1.5185,-1.5117,-1.5117,-1.5117,-1.5117,0,-1.4972,-1.4993,-1.5011,-1.5029,-1.5041,-1.5064,-1.5066,-1.5078,-1.5075,-1.5078,-1.5105,-1.5114,-1.5132,-1.514,-1.5137,-1.5172,-1.5167,-1.5157,-1.514,-1.5172,-1.5186,-1.5191,-1.5119,-1.5119,-1.5118,-1.5118,0,0,-1.5026,-1.5042,-1.5049,-1.5056,-1.507,-1.5086,-1.5108,-1.5126,-1.5136,-1.5149,-1.5167,-1.5192,-1.5183,-1.5193,-1.5191,-1.5207,-1.5239,-1.5195,-1.5195,-1.5203,-1.5278,-1.5286,-1.5292,-1.5234,-1.5236,-1.5236,-1.5277,0,-1.5068,-1.5107,-1.5106,-1.5143,-1.5161,-1.5152,-1.5171,-1.5181,-1.5184,-1.52,-1.5203,-1.5221,-1.5208,-1.5214,-1.5228,-1.5232,-1.5254,-1.5229,-1.5252,-1.5252,-1.5249,-1.5299,-1.5308,-1.5346,-1.5282,-1.5283,-1.5284,0,-1.5122,-1.5136,-1.5174,-1.5185,-1.5192,-1.521,-1.5226,-1.5241,-1.5252,-1.5253,-1.5263,-1.5259,-1.5281,-1.5262,-1.5292,-1.5275,-1.5284,-1.5287,-1.5288,-1.5291,-1.5271,-1.5303,-1.5358,-1.5364,-1.5292,-1.5292,-1.5291,0,-1.5157,-1.5186,-1.5213,-1.5219,-1.5232,-1.5244,-1.525,-1.526,-1.527,-1.5284,-1.529,-1.5306,-1.5315,-1.5327,-1.5326,-1.5313,-1.5356,-1.5338,-1.5358,-1.5358,-1.5368,-1.5368,-1.5425,-1.5373,-1.5373,-1.5373,-1.5373,0,-1.5204,-1.5228,-1.5229,-1.5245,-1.5271,-1.5269,-1.5295,-1.5299,-1.5308,-1.5325,-1.5317,-1.5333,-1.5331,-1.5347,-1.5346,-1.5371,-1.5375,-1.5376,-1.5376,-1.5377,-1.5377,-1.5383,-1.5381,-1.5374,-1.5374,-1.5374,-1.5373,0,-1.5249,-1.525,-1.5278,-1.5288,-1.5291,-1.531,-1.5317,-1.5333,-1.5334,-1.5356,-1.536,-1.5363,-1.5381,-1.5382,-1.5402,-1.5402,-1.5432,-1.5429,-1.5429,-1.5428,-1.5448,-1.5446,-1.5512,-1.552,-1.5462,-1.5463,-1.5463,0,-1.5279,-1.5297,-1.5308,-1.5319,-1.5325,-1.5343,-1.5353,-1.5351,-1.5362,-1.5375,-1.5389,-1.5406,-1.542,-1.5449,-1.5452,-1.5468,-1.5465,-1.5487,-1.5467,-1.5468,-1.5465,-1.5464,-1.5466,-1.5491,-1.5491,-1.5492,-1.5492,0,-1.5332,-1.5332,-1.5347,-1.5363,-1.5375,-1.5387,-1.5399,-1.5408,-1.5407,-1.5419,-1.5438,-1.5448,-1.5469,-1.5486,-1.5501,-1.5506,-1.5499,-1.5498,-1.5504,-1.5506,-1.5505,-1.5506,-1.5439,-1.5497,-1.5497,-1.5496,-1.5496,-1.5496,-1.5371,-1.5386,-1.5396,-1.5413,-1.5421,-1.5432,-1.5446,-1.545,-1.5465,-1.5482,-1.5479,-1.55,-1.5509,-1.5528,-1.5535,-1.555,-1.5542,-1.555,-1.5552,-1.5554,-1.5556,-1.5502,-1.5553,-1.5552,-1.5552,-1.5552,-1.5552,0,-1.5424,-1.5429,-1.5445,-1.5461,-1.5474,-1.5466,-1.5478,-1.5489,-1.5507,-1.5517,-1.553,-1.5551,-1.5567,-1.5571,-1.5587,-1.5598,-1.5595,-1.5602,-1.5602,-1.5603,-1.5562,-1.5556,-1.5604,-1.5604,-1.5604,-1.5604,-1.5604,-1.5604,-1.5453,-1.5479,-1.5479,-1.5508,-1.5514,-1.5534,-1.5541,-1.555,-1.5557,-1.5581,-1.5594,-1.5597,-1.5604,-1.562,-1.5634,-1.5635,-1.5641,-1.5649,-1.5649,-1.5611,-1.5606,-1.5601,-1.5595,-1.5651,-1.5651,-1.5688,-1.5689,-1.5689]},{"header":{"parameterUnit":"m.s-1","parameterCategory":1,"la1":30.2991,"la2":30.254,"lo1":-89.0895,"lo2":-89.0444,"dy":0.0017,"dx":0.0017,"nx":28,"ny":28,"refTime":"2024-03-26T21:00:00:Z","depth":0,"parameterNumber":3,"parameterNumberName":"V-component_of_WINDS"},"data":[0,0,0,0,0,0,0,0,0,0,0,0,0,0,0,0,0,0,0,0,0,0,0,0,0,0,0,0,0,0,0,0,0,0,0,0,0,0,0,0,0,0,0,0,0,0,0,0,0,0,0,0,0,0,0,0,0,0,-7.148,-7.1481,0,-7.1589,-7.1591,-7.1592,-7.1552,-7.1549,-7.1547,-7.1545,-7.1649,-7.1654,-7.1659,0,0,0,0,0,0,0,0,0,0,0,0,0,-7.1231,-7.1235,-7.148,-7.1481,-7.1483,-7.1589,-7.1591,-7.1592,-7.1552,-7.1549,-7.1546,-7.1543,-7.1648,-7.1654,-7.166,0,0,0,0,0,0,0,0,0,0,0,0,0,-7.1339,-7.1237,-7.148,-7.1476,-7.1477,-7.1589,-7.1591,-7.1593,-7.1553,-7.1549,-7.1545,-7.1542,-7.1646,-7.1653,-7.1661,-7.1781,0,0,-7.1684,-7.1687,0,0,0,0,0,0,0,0,-7.1333,-7.1348,-7.1475,-7.1476,-7.1477,-7.1553,-7.1541,-7.1656,-7.1554,-7.1524,-7.1544,-7.154,-7.162,-7.163,-7.1658,-7.1786,-7.1791,-7.1685,-7.1689,-7.1693,-7.1695,0,0,0,0,0,0,0,-7.1326,-7.1343,-7.1523,-7.1477,-7.1478,-7.1467,-7.1478,-7.1563,-7.1591,-7.1526,-7.1523,-7.1537,-7.162,-7.1651,-7.166,-7.1792,-7.1684,-7.1691,-7.1696,-7.1699,-7.2026,-7.203,0,0,0,0,0,0,-7.1318,-7.1337,-7.152,-7.1526,-7.1395,-7.1474,-7.1487,-7.1532,-7.159,-7.1595,-7.154,-7.1535,-7.1639,-7.1651,-7.1664,-7.181,-7.1693,-7.17,-7.1704,-7.2022,-7.2027,-7.2032,0,0,0,0,0,0,-7.1313,-7.1335,-7.1515,-7.1431,-7.1453,-7.1482,-7.1534,-7.1537,-7.1567,-7.1601,-7.1605,-7.1567,-7.1637,-7.1653,-7.1753,-7.1813,-7.1703,-7.171,-7.2017,-7.2024,-7.203,-7.2103,0,0,0,0,0,0,-7.1306,-7.1333,-7.1381,-7.1433,-7.1458,-7.1605,-7.1538,-7.1541,-7.1582,-7.1576,-7.1627,-7.1632,-7.1635,-7.1742,-7.1761,-7.1821,-7.1716,-7.2012,-7.202,-7.2028,-7.2095,-7.2111,-7.2124,0,0,0,0,0,-7.1297,-7.1395,-7.1384,-7.1406,-7.1518,-7.1609,-7.1623,-7.1627,-7.1587,-7.1634,-7.1655,-7.163,-7.1803,-7.1753,-7.1773,-7.1837,-7.2008,-7.2018,-7.2027,-7.2089,-7.2108,-7.2124,0,0,0,0,0,0,-7.1347,-7.1402,-7.1389,-7.1507,-7.1554,-7.1602,-7.1661,-7.1646,-7.1703,-7.1695,-7.1696,-7.1708,-7.1811,-7.1834,-7.1777,-7.1958,-7.19,-7.1913,-7.1939,-7.1958,-7.1972,-7.1964,-7.1722,0,0,0,0,0,-7.1372,-7.1443,-7.1486,-7.1586,-7.161,-7.1632,-7.1671,-7.1671,-7.1718,-7.1737,-7.1765,-7.181,-7.1875,-7.1917,-7.1978,-7.2098,-7.2109,-7.2152,-7.2166,-7.2178,-7.219,-7.2256,-7.2276,-7.2062,-7.2062,-7.2062,0,0,-7.1423,-7.1462,-7.1506,-7.1597,-7.1633,-7.1705,-7.1649,-7.1726,-7.1779,-7.1747,-7.1845,-7.1868,-7.1918,-7.2029,-7.2079,-7.2051,-7.2252,-7.219,-7.2199,-7.2205,-7.2268,-7.2288,-7.2306,-7.2069,-7.2067,-7.2066,0,0,-7.1554,-7.1591,-7.1679,-7.1717,-7.1773,-7.1788,-7.1809,-7.186,-7.1874,-7.1973,-7.1951,-7.2013,-7.2124,-7.2161,-7.2194,-7.2341,-7.2321,-7.2361,-7.2436,-7.2501,-7.2517,-7.2532,-7.2586,-7.2605,-7.2373,-7.2373,-7.2373,0,-7.161,-7.172,-7.1725,-7.1806,-7.1847,-7.1824,-7.1913,-7.1948,-7.2021,-7.2048,-7.2016,-7.2157,-7.2188,-7.2308,-7.2345,-7.2372,-7.2396,-7.2355,-7.2515,-7.253,-7.2544,-7.2595,-7.2615,-7.2378,-7.2377,-7.2377,-7.2376,0,-7.1787,-7.1863,-7.1927,-7.2002,-7.2049,-7.2133,-7.2149,-7.2196,-7.2192,-7.2209,-7.231,-7.2347,-7.2417,-7.2445,-7.244,-7.2565,-7.2546,-7.2514,-7.2456,-7.2569,-7.2617,-7.2636,-7.2384,-7.2383,-7.2381,-7.238,0,0,-7.1951,-7.2029,-7.2052,-7.2087,-7.2148,-7.2206,-7.2289,-7.2359,-7.24,-7.245,-7.252,-7.2615,-7.2587,-7.2625,-7.2624,-7.2681,-7.2796,-7.2642,-7.2644,-7.267,-7.2937,-7.296,-7.2983,-7.2783,-7.2786,-7.2789,-7.2933,0,-7.2088,-7.2237,-7.2244,-7.2379,-7.2449,-7.243,-7.2502,-7.2546,-7.2565,-7.2626,-7.2644,-7.2713,-7.2671,-7.2694,-7.2749,-7.277,-7.2849,-7.276,-7.2846,-7.2849,-7.2835,-7.3008,-7.3033,-7.3167,-7.2951,-7.2954,-7.2957,0,-7.2267,-7.2327,-7.247,-7.2523,-7.2553,-7.2618,-7.2684,-7.2743,-7.2793,-7.2802,-7.2846,-7.2837,-7.292,-7.286,-7.2974,-7.2913,-7.2949,-7.2965,-7.297,-7.2978,-7.291,-7.3021,-7.3209,-7.323,-7.2986,-7.2984,-7.2981,0,-7.2374,-7.249,-7.2591,-7.262,-7.2684,-7.2731,-7.2759,-7.2806,-7.2848,-7.2905,-7.2932,-7.2997,-7.3032,-7.3082,-7.309,-7.3045,-7.3205,-7.3145,-7.3215,-7.3215,-7.325,-7.3247,-7.3446,-7.3271,-7.3271,-7.3271,-7.327,0,-7.2526,-7.2614,-7.264,-7.2702,-7.28,-7.2807,-7.2903,-7.2928,-7.297,-7.3035,-7.302,-7.3081,-7.3089,-7.3152,-7.3158,-7.3253,-7.3268,-7.3277,-7.3278,-7.3279,-7.3278,-7.3303,-7.3294,-7.3276,-7.3275,-7.3274,-7.3273,0,-7.2662,-7.2683,-7.2792,-7.2845,-7.286,-7.293,-7.2975,-7.3033,-7.3051,-7.3133,-7.3153,-7.318,-7.3253,-7.3267,-7.3352,-7.3356,-7.3469,-7.346,-7.3454,-7.3453,-7.3522,-7.3516,-7.3744,-7.3775,-7.3579,-7.3581,-7.3583,0,-7.2759,-7.2827,-7.2888,-7.2932,-7.2964,-7.3035,-7.3079,-7.3088,-7.3135,-7.3198,-7.3249,-7.3321,-7.3379,-7.3497,-7.3522,-7.3587,-7.358,-7.3656,-7.359,-7.3589,-7.3582,-7.3579,-7.3586,-7.3669,-7.3671,-7.3672,-7.3674,0,-7.2928,-7.2935,-7.3001,-7.3071,-7.3125,-7.318,-7.3232,-7.3268,-7.3284,-7.3337,-7.3413,-7.3459,-7.3548,-7.3619,-7.3685,-7.3711,-7.3696,-7.3695,-7.3714,-7.3716,-7.371,-7.3716,-7.3489,-7.3689,-7.3688,-7.3687,-7.3686,-7.3685,-7.3047,-7.3107,-7.3161,-7.3235,-7.3276,-7.3325,-7.3384,-7.341,-7.3475,-7.355,-7.3551,-7.3634,-7.3682,-7.377,-7.3801,-7.3865,-7.3841,-7.3869,-7.3876,-7.3883,-7.3891,-7.37,-7.3876,-7.3876,-7.3876,-7.3875,-7.3875,0,-7.3216,-7.325,-7.3319,-7.3394,-7.3452,-7.3435,-7.3491,-7.3541,-7.3616,-7.3663,-7.3722,-7.381,-7.388,-7.3912,-7.398,-7.4026,-7.402,-7.4043,-7.404,-7.4047,-7.3908,-7.3885,-7.4047,-7.4047,-7.4047,-7.4047,-7.4047,-7.4047,-7.3311,-7.3413,-7.3427,-7.3548,-7.3581,-7.3665,-7.37,-7.3745,-7.3783,-7.3883,-7.3943,-7.3964,-7.4005,-7.4077,-7.414,-7.4147,-7.4173,-7.4201,-7.4205,-7.4074,-7.4057,-7.404,-7.4018,-7.4206,-7.4206,-7.4338,-7.434,-7.4341]}]]